GW3137 Weather Reports


Display with metric or nautical units.
time (UTC)temp
F
wind
direction
speed
MPH
gust
MPH
rain 1hr
in
rain 24hr
in
rain mn
in
humidity
%
barometer
mb
20260904160703 58 306 1.0 2.0 0.00 0.21 0.00 89 1013.4
20260904153704 58 72 0.0 1.0 0.00 0.21 0.00 87 1013.2
20260904150704 56 86 0.0 1.0 0.00 0.21 0.00 91 1013.0
20260904143704 55 86 0.0 0.0 0.00 0.21 0.00 92 1012.6
20260904143203 55 86 0.0 2.0 0.00 0.21 0.00 92 1012.6
20260904140704 54 86 0.0 1.0 0.00 0.21 0.00 92 1012.5
20260904140203 54 86 1.0 3.0 0.00 0.21 0.00 92 1012.5
20260904133704 54 93 1.0 3.0 0.00 0.21 0.00 93 1012.2
20260904130703 54 71 0.0 3.0 0.00 0.23 0.00 92 1011.9
20260904130204 54 59 0.0 1.0 0.00 0.23 0.00 92 1011.8
20260904123704 54 59 0.0 0.0 0.00 0.26 0.00 92 1011.8
20260904123204 54 59 1.0 2.0 0.00 0.26 0.00 92 1011.8
20260904120204 54 119 1.0 3.0 0.00 0.28 0.00 93 1011.4
20260904113704 54 68 1.0 2.0 0.00 0.28 0.00 93 1011.3
20260904113203 54 68 0.0 0.0 0.00 0.28 0.00 93 1011.3
20260904103703 54 68 0.0 0.0 0.00 0.28 0.00 93 1011.0
20260904103204 54 68 0.0 0.0 0.00 0.28 0.00 92 1011.0
20260904100704 55 68 0.0 0.0 0.00 0.28 0.00 92 1010.7
20260904093703 56 68 0.0 0.0 0.00 0.28 0.00 92 1010.7
20260904093204 56 68 0.0 3.0 0.00 0.28 0.00 92 1010.8
20260904090204 55 80 2.0 3.0 0.00 0.28 0.00 92 1010.7
20260904083704 55 90 2.0 3.0 0.00 0.28 0.00 92 1010.7
20260904083203 55 101 2.0 3.0 0.00 0.28 0.00 92 1010.8
20260904073704 56 68 0.0 1.0 0.02 0.28 0.00 92 1010.8
20260904073204 56 68 0.0 3.0 0.02 0.28 0.00 91 1010.8
20260904070704 56 68 0.0 0.0 0.03 0.28 0.00 91 1010.9
20260904070205 56 68 0.0 0.0 0.03 0.28 0.00 91 1010.9
20260904063703 57 68 0.0 0.0 0.01 0.26 0.26 90 1010.9
20260904063203 57 68 1.0 7.0 0.01 0.26 0.26 90 1010.8
20260904060704 57 82 1.0 3.0 0.00 0.25 0.25 90 1010.7
20260904060204 57 80 2.0 3.0 0.00 0.25 0.25 90 1010.6
20260904053704 57 80 0.0 0.0 0.00 0.25 0.25 91 1010.6
20260904053204 57 80 0.0 0.0 0.00 0.25 0.25 91 1010.6
20260904050704 58 80 0.0 0.0 0.00 0.25 0.25 91 1010.7
20260904050203 58 80 0.0 0.0 0.00 0.25 0.25 92 1010.6
20260904043204 57 80 0.0 0.0 0.00 0.25 0.25 91 1010.8
20260904040703 57 80 0.0 0.0 0.00 0.25 0.25 91 1010.6
20260904040205 58 80 0.0 0.0 0.00 0.25 0.25 90 1010.5
20260904033704 58 80 0.0 0.0 0.00 0.25 0.25 90 1010.4
20260904033204 58 80 0.0 3.0 0.00 0.25 0.25 90 1010.3
20260904030704 59 142 1.0 2.0 0.00 0.25 0.25 90 1010.1
20260904030204 59 142 0.0 2.0 0.00 0.25 0.25 89 1010.1
20260904023704 60 142 0.0 2.0 0.01 0.25 0.25 86 1010.0
20260904023204 59 142 1.0 6.0 0.01 0.25 0.25 87 1010.0
20260904020704 59 132 2.0 3.0 0.11 0.25 0.25 88 1009.9
20260904013704 60 145 1.0 3.0 0.17 0.24 0.24 88 1009.8
20260904013204 60 239 0.0 5.0 0.17 0.24 0.24 86 1009.9
20260904010204 61 160 2.0 10.0 0.07 0.15 0.14 81 1009.8
20260904003704 66 28 1.0 3.0 0.00 0.09 0.07 64 1009.4
20260904003203 66 41 1.0 8.0 0.00 0.10 0.07 64 1009.3
20260904000704 67 15 1.0 3.0 0.00 0.11 0.07 64 1009.4
20260904000205 67 27 2.0 8.0 0.00 0.11 0.07 63 1009.3
20260903233704 69 56 2.0 5.0 0.00 0.11 0.07 61 1009.4
20260903233203 69 59 3.0 6.0 0.00 0.11 0.07 61 1009.4
20260903230704 71 1 2.0 6.0 0.00 0.12 0.07 59 1009.3
20260903230203 70 40 3.0 6.0 0.00 0.12 0.07 63 1009.4
20260903223704 67 31 2.0 6.0 0.00 0.15 0.07 66 1009.6
20260903223203 67 7 3.0 5.0 0.00 0.16 0.07 68 1009.6
20260903220704 65 44 0.0 2.0 0.00 0.19 0.07 68 1009.7
20260903220204 65 44 1.0 5.0 0.00 0.19 0.07 69 1009.8
20260903213704 64 198 1.0 3.0 0.00 0.22 0.07 68 1009.8
20260903213204 65 266 3.0 7.0 0.00 0.22 0.07 66 1009.8
20260903210704 65 230 2.0 13.0 0.00 0.24 0.07 68 1009.7
20260903203205 67 287 4.0 10.0 0.00 0.25 0.07 62 1009.5
20260903200704 64 279 2.0 7.0 0.00 0.25 0.07 66 1009.5
20260903200204 64 292 3.0 10.0 0.00 0.25 0.07 67 1009.5
20260903193704 64 246 2.0 7.0 0.00 0.28 0.07 68 1009.5
20260903193204 64 185 3.0 12.0 0.00 0.28 0.07 67 1009.5
20260903190704 65 180 2.0 5.0 0.00 0.28 0.07 68 1009.4
20260903190204 64 160 2.0 9.0 0.00 0.28 0.07 69 1009.5
20260903183703 63 244 2.0 5.0 0.00 0.28 0.07 70 1009.5
20260903183204 62 188 2.0 7.0 0.00 0.28 0.07 71 1009.5
20260903180703 61 159 3.0 5.0 0.00 0.28 0.07 73 1009.5
20260903180204 61 163 4.0 9.0 0.00 0.28 0.07 73 1009.4
20260903173704 61 156 3.0 7.0 0.00 0.28 0.07 75 1009.3
20260903170704 61 119 1.0 3.0 0.00 0.28 0.07 81 1009.1
20260903170204 60 61 1.0 7.0 0.00 0.28 0.07 83 1009.1
20260903163704 59 136 3.0 6.0 0.00 0.28 0.07 83 1009.1
20260903163204 59 78 1.0 3.0 0.00 0.28 0.07 83 1009.1